Weather History for Eastover, SC

Change the Weather History Date:

Thursday, December 29, 2011

  Actual Average Record
Temperature  
Mean Temperature 42 °F -  
Max Temperature 58 °F 54 °F 67 °F (2008)
Min Temperature 25 °F 32 °F 22 °F (2010)
Degree Days  
Heating Degree Days 24    
Moisture  
Dew Point 27 °F    
Average Humidity 82    
Maximum Humidity 100    
Minimum Humidity 32    
Precipitation  
Precipitation 0.00 in - - ()
Sea Level Pressure  
Sea Level Pressure 30.09 in    
Wind  
Wind Speed 1 mph (SW)    
Max Wind Speed 13 mph    
Max Gust Speed 17 mph    
Visibility 5 miles    
Events      
Averages and records for this station are not official NWS values.
T = Trace of Precipitation, MM = Missing Value Source: NWS Daily Summary

Daily Weather History Graph

Daily Weather History Graph

Search for Another Location

Airport:

Trip Planner

Search our weather history database for the weather conditions in past years. The results will help you decide how hot, cold, wet, or windy it might be!

Date:

Astronomy

Dec. 29, 2011 Rise Set
Actual Time 7:27 AM EST 5:22 PM EST
Civil Twilight 6:59 AM EST 5:50 PM EST
Nautical Twilight 6:28 AM EST 6:21 PM EST
Astronomical Twilight 5:58 AM EST 6:52 PM EST
Moon 10:34 AM EST (12/29) 10:42 PM EST (12/29)
Length of Visible Light 10h 50m
Length of Day
9h 55m
Waxing Crescent, 26% of the Moon is Illuminated
Dec 29
Waxing Crescent
Jan 1
First Quarter
Jan 9
Full
Jan 16
Last Quarter
Jan 23
New

Hourly Weather History & Observations

Time (EST) Temp. Windchill Dew Point Humidity Pressure Visibility Wind Dir Wind Speed Gust Speed Precip Events Conditions
12:55 AM 29.8 °F - 28.0 °F 93% 30.08 in 10.0 mi Calm Calm - N/A   Clear
1:55 AM 28.6 °F - 27.3 °F 95% 30.09 in 10.0 mi Calm Calm - N/A   Clear
2:55 AM 27.1 °F - 25.9 °F 95% 30.09 in 4.0 mi Calm Calm - N/A   Clear
2:57 AM 26.6 °F - 26.6 °F 100% 30.09 in 2.0 mi Calm Calm - N/A   Clear
2:58 AM 26.6 °F - 26.6 °F 100% 30.09 in 1.8 mi Calm Calm - N/A   Clear
2:59 AM 26.6 °F - 26.6 °F 100% 30.09 in 1.5 mi Calm Calm - N/A   Clear
3:02 AM 26.6 °F - 26.6 °F 100% 30.10 in 1.8 mi Calm Calm - N/A   Clear
3:05 AM 26.6 °F - 24.8 °F 93% 30.09 in 2.0 mi Calm Calm - N/A   Clear
3:07 AM 26.6 °F - 24.8 °F 93% 30.09 in 3.0 mi Calm Calm - N/A   Clear
3:55 AM 27.3 °F - 26.1 °F 95% 30.09 in 7.0 mi Calm Calm - N/A   Clear
4:41 AM 26.6 °F - 24.8 °F 93% 30.09 in 2.0 mi Calm Calm - N/A   Clear
4:42 AM 26.6 °F - 24.8 °F 93% 30.09 in 1.5 mi Calm Calm - N/A   Clear
4:43 AM 26.6 °F - 24.8 °F 93% 30.09 in 1.0 mi Calm Calm - N/A   Clear
4:45 AM 26.6 °F - 24.8 °F 93% 30.09 in 0.8 mi Calm Calm - N/A   Clear
4:47 AM 26.6 °F - 24.8 °F 93% 30.09 in 0.8 mi Calm Calm - N/A   Clear
4:49 AM 26.6 °F - 24.8 °F 93% 30.09 in 0.8 mi Calm Calm - N/A   Clear
4:51 AM 26.6 °F - 26.6 °F 100% 30.09 in 1.0 mi Calm Calm - N/A   Clear
4:52 AM 26.6 °F - 26.6 °F 100% 30.09 in 1.2 mi Calm Calm - N/A   Clear
4:53 AM 26.6 °F - 26.6 °F 100% 30.09 in 1.5 mi Calm Calm - N/A   Clear
4:54 AM 26.6 °F - 26.6 °F 100% 30.09 in 2.0 mi Calm Calm - N/A   Clear
4:55 AM 27.3 °F - 26.4 °F 96% 30.09 in 3.0 mi Calm Calm - N/A   Clear
5:10 AM 26.6 °F - 24.8 °F 93% 30.10 in 2.5 mi Calm Calm - N/A   Clear
5:17 AM 26.6 °F - 24.8 °F 93% 30.09 in 1.8 mi Calm Calm - N/A   Clear
5:18 AM 26.6 °F - 24.8 °F 93% 30.09 in 1.5 mi Calm Calm - N/A   Clear
5:19 AM 26.6 °F - 24.8 °F 93% 30.10 in 1.2 mi Calm Calm - N/A   Clear
5:21 AM 26.6 °F - 24.8 °F 93% 30.09 in 1.5 mi Calm Calm - N/A   Clear
5:26 AM 26.6 °F - 24.8 °F 93% 30.09 in 1.8 mi Calm Calm - N/A   Clear
5:27 AM 26.6 °F - 24.8 °F 93% 30.09 in 2.0 mi Calm Calm - N/A   Clear
5:29 AM 26.6 °F - 24.8 °F 93% 30.09 in 3.0 mi Calm Calm - N/A   Clear
5:55 AM 25.5 °F - 23.9 °F 94% 30.10 in 7.0 mi Calm Calm - N/A   Clear
6:55 AM 25.2 °F 20.9 °F 23.7 °F 94% 30.11 in 10.0 mi NNW 3.5 mph - N/A   Partly Cloudy
7:55 AM 25.7 °F - 23.9 °F 93% 30.11 in 10.0 mi Calm Calm - N/A   Partly Cloudy
8:55 AM 34.0 °F - 30.9 °F 89% 30.13 in 10.0 mi Calm Calm - N/A   Partly Cloudy
9:55 AM 40.3 °F 38.2 °F 31.8 °F 72% 30.15 in 10.0 mi WSW 3.5 mph - N/A   Partly Cloudy
10:55 AM 47.7 °F - 31.1 °F 53% 30.14 in 10.0 mi SW 4.6 mph - N/A   Scattered Clouds
11:55 AM 51.3 °F - 30.9 °F 46% 30.11 in 10.0 mi WSW 6.9 mph - N/A   Mostly Cloudy
12:55 PM 55.9 °F - 30.9 °F 39% 30.07 in 10.0 mi WSW 12.7 mph 17.3 mph N/A   Scattered Clouds
1:55 PM 57.4 °F - 29.5 °F 35% 30.04 in 10.0 mi SW 11.5 mph - N/A   Partly Cloudy
2:55 PM 58.6 °F - 28.8 °F 32% 30.04 in 10.0 mi WSW 8.1 mph - N/A   Partly Cloudy
3:55 PM 58.1 °F - 28.4 °F 32% 30.05 in 10.0 mi SW 10.4 mph - N/A   Partly Cloudy
4:55 PM 55.6 °F - 29.5 °F 37% 30.04 in 10.0 mi SSW 6.9 mph - N/A   Mostly Cloudy
5:55 PM 52.2 °F - 30.2 °F 43% 30.05 in 10.0 mi Calm Calm - N/A   Mostly Cloudy
6:55 PM 47.8 °F - 31.1 °F 52% 30.05 in 10.0 mi South 4.6 mph - N/A   Clear
7:55 PM 46.9 °F - 31.6 °F 55% 30.05 in 10.0 mi South 8.1 mph - N/A   Clear
8:55 PM 45.0 °F - 30.9 °F 58% 30.07 in 10.0 mi Calm Calm - N/A   Clear
9:55 PM 40.1 °F - 30.6 °F 69% 30.09 in 10.0 mi Calm Calm - N/A   Partly Cloudy
10:55 PM 36.3 °F - 31.6 °F 83% 30.10 in 10.0 mi Calm Calm - N/A   Scattered Clouds
11:55 PM 34.9 °F - 31.3 °F 87% 30.10 in 10.0 mi Calm Calm - N/A   Clear